Time,TemperatureF,DewpointF,PressureIn,WindDirection,WindDirectionDegrees,WindSpeedMPH,WindSpeedGustMPH,Humidity,HourlyPrecipIn,Conditions,Clouds,dailyrainin,SolarRadiationWatts/m^2,SoftwareType,DateUTC
2013-09-04 00:24:00,62.0,59.0,-100.00,WSW,255,4.0,10.0,89,0.00,,,0.00,1.000000,,2013-09-04 04:24:00,
2013-09-04 00:33:00,62.0,59.0,-100.00,WSW,255,4.0,10.0,89,0.00,,,0.00,1.000000,,2013-09-04 04:33:00,
2013-09-04 00:44:00,62.0,59.0,-100.00,WSW,255,4.0,10.0,89,0.00,,,0.00,1.000000,,2013-09-04 04:44:00,
2013-09-04 00:54:00,62.0,59.0,-100.00,WSW,255,4.0,10.0,89,0.00,,,0.00,1.000000,,2013-09-04 04:54:00,
2013-09-04 01:23:00,61.0,59.0,-100.00,WSW,246,4.0,10.0,94,0.00,,,0.00,1.000000,,2013-09-04 05:23:00,
2013-09-04 01:34:00,61.0,59.0,-100.00,WSW,246,4.0,10.0,94,0.00,,,0.00,1.000000,,2013-09-04 05:34:00,
2013-09-04 01:43:00,61.0,59.0,-100.00,WSW,246,4.0,10.0,94,0.00,,,0.00,1.000000,,2013-09-04 05:43:00,
2013-09-04 01:52:00,61.0,59.0,-100.00,WSW,246,4.0,10.0,94,0.00,,,0.00,1.000000,,2013-09-04 05:52:00,
2013-09-04 02:22:00,58.0,58.0,-100.00,WSW,246,1.0,7.0,100,0.00,,,0.00,1.000000,,2013-09-04 06:22:00,
2013-09-04 02:32:00,58.0,58.0,-100.00,WSW,246,1.0,7.0,100,0.00,,,0.00,1.000000,,2013-09-04 06:32:00,
2013-09-04 02:42:00,58.0,58.0,-100.00,WSW,246,1.0,7.0,100,0.00,,,0.00,1.000000,,2013-09-04 06:42:00,
2013-09-04 02:52:00,58.0,58.0,-100.00,WSW,246,1.0,7.0,100,0.00,,,0.00,1.000000,,2013-09-04 06:52:00,
2013-09-04 03:22:00,56.0,56.0,-100.00,SW,222,1.0,3.0,100,0.00,,,0.00,1.000000,,2013-09-04 07:22:00,
2013-09-04 03:32:00,56.0,56.0,-100.00,SW,222,1.0,3.0,100,0.00,,,0.00,1.000000,,2013-09-04 07:32:00,
2013-09-04 03:42:00,56.0,56.0,-100.00,SW,222,1.0,3.0,100,0.00,,,0.00,1.000000,,2013-09-04 07:42:00,
2013-09-04 03:52:00,56.0,56.0,-100.00,SW,222,1.0,3.0,100,0.00,,,0.00,1.000000,,2013-09-04 07:52:00,
2013-09-04 04:22:00,55.0,55.0,-100.00,NW,304,0.0,2.0,100,0.00,,,0.00,1.000000,,2013-09-04 08:22:00,
2013-09-04 04:32:00,55.0,55.0,-100.00,NW,304,0.0,2.0,100,0.00,,,0.00,1.000000,,2013-09-04 08:32:00,
2013-09-04 04:43:00,55.0,55.0,-100.00,NW,304,0.0,2.0,100,0.00,,,0.00,1.000000,,2013-09-04 08:43:00,
2013-09-04 04:52:00,55.0,55.0,-100.00,NW,304,0.0,2.0,100,0.00,,,0.00,1.000000,,2013-09-04 08:52:00,
2013-09-04 05:22:00,54.0,54.0,-100.00,SSE,163,0.0,0.0,100,0.00,,,0.00,1.000000,,2013-09-04 09:22:00,
2013-09-04 05:33:00,54.0,54.0,-100.00,SSE,163,0.0,0.0,100,0.00,,,0.00,1.000000,,2013-09-04 09:33:00,
2013-09-04 05:43:00,54.0,54.0,-100.00,SSE,163,0.0,0.0,100,0.00,,,0.00,1.000000,,2013-09-04 09:43:00,
2013-09-04 05:53:00,54.0,54.0,-100.00,SSE,163,0.0,0.0,100,0.00,,,0.00,1.000000,,2013-09-04 09:53:00,
2013-09-04 06:23:00,53.0,53.0,-100.00,West,265,2.0,4.0,100,0.00,,,0.00,1.000000,,2013-09-04 10:23:00,
2013-09-04 06:33:00,53.0,53.0,-100.00,West,265,2.0,4.0,100,0.00,,,0.00,1.000000,,2013-09-04 10:33:00,
2013-09-04 06:42:00,53.0,53.0,-100.00,West,265,2.0,4.0,100,0.00,,,0.00,1.000000,,2013-09-04 10:42:00,
2013-09-04 06:52:00,53.0,53.0,-100.00,West,265,2.0,4.0,100,0.00,,,0.00,1.000000,,2013-09-04 10:52:00,
2013-09-04 07:22:00,53.0,53.0,-100.00,West,262,0.0,4.0,100,0.00,,,0.00,4.000000,,2013-09-04 11:22:00,
2013-09-04 07:33:00,53.0,53.0,-100.00,West,262,0.0,4.0,100,0.00,,,0.00,4.000000,,2013-09-04 11:33:00,
2013-09-04 07:42:00,53.0,53.0,-100.00,West,262,0.0,4.0,100,0.00,,,0.00,4.000000,,2013-09-04 11:42:00,
2013-09-04 07:52:00,53.0,53.0,-100.00,West,262,0.0,4.0,100,0.00,,,0.00,4.000000,,2013-09-04 11:52:00,
2013-09-04 08:21:00,58.0,58.0,-100.00,West,269,3.0,7.0,100,0.00,,,0.00,99.000000,,2013-09-04 12:21:00,
2013-09-04 08:32:00,58.0,58.0,-100.00,West,269,3.0,7.0,100,0.00,,,0.00,99.000000,,2013-09-04 12:32:00,
2013-09-04 08:42:00,58.0,58.0,-100.00,West,269,3.0,7.0,100,0.00,,,0.00,99.000000,,2013-09-04 12:42:00,
2013-09-04 08:52:00,58.0,58.0,-100.00,West,269,3.0,7.0,100,0.00,,,0.00,99.000000,,2013-09-04 12:52:00,
2013-09-04 09:22:00,62.0,59.0,-100.00,WSW,252,4.0,9.0,90,0.00,,,0.00,268.000000,,2013-09-04 13:22:00,
2013-09-04 09:32:00,62.0,59.0,-100.00,WSW,252,4.0,9.0,90,0.00,,,0.00,268.000000,,2013-09-04 13:32:00,
2013-09-04 09:42:00,62.0,59.0,-100.00,WSW,252,4.0,9.0,90,0.00,,,0.00,268.000000,,2013-09-04 13:42:00,
2013-09-04 09:52:00,62.0,59.0,-100.00,WSW,252,4.0,9.0,90,0.00,,,0.00,268.000000,,2013-09-04 13:52:00,
2013-09-04 10:21:00,65.0,60.0,-100.00,SW,223,4.0,8.0,83,0.00,,,0.00,390.000000,,2013-09-04 14:21:00,
2013-09-04 10:32:00,65.0,60.0,-100.00,SW,223,4.0,8.0,83,0.00,,,0.00,390.000000,,2013-09-04 14:32:00,
2013-09-04 10:42:00,65.0,60.0,-100.00,SW,223,4.0,8.0,83,0.00,,,0.00,390.000000,,2013-09-04 14:42:00,
2013-09-04 10:52:00,65.0,60.0,-100.00,SW,223,4.0,8.0,83,0.00,,,0.00,390.000000,,2013-09-04 14:52:00,
2013-09-04 11:22:00,69.0,60.0,-100.00,WSW,255,5.0,11.0,74,0.00,,,0.00,588.000000,,2013-09-04 15:22:00,
2013-09-04 11:33:00,69.0,60.0,-100.00,WSW,255,5.0,11.0,74,0.00,,,0.00,588.000000,,2013-09-04 15:33:00,
2013-09-04 11:43:00,69.0,60.0,-100.00,WSW,255,5.0,11.0,74,0.00,,,0.00,588.000000,,2013-09-04 15:43:00,
2013-09-04 11:53:00,69.0,60.0,-100.00,WSW,255,5.0,11.0,74,0.00,,,0.00,588.000000,,2013-09-04 15:53:00,
2013-09-04 12:23:00,71.0,59.0,-100.00,WSW,253,5.0,13.0,67,0.00,,,0.00,725.000000,,2013-09-04 16:23:00,
2013-09-04 12:34:00,71.0,59.0,-100.00,WSW,253,5.0,13.0,67,0.00,,,0.00,725.000000,,2013-09-04 16:34:00,
2013-09-04 12:43:00,71.0,59.0,-100.00,WSW,253,5.0,13.0,67,0.00,,,0.00,725.000000,,2013-09-04 16:43:00,
2013-09-04 12:53:00,71.0,59.0,-100.00,WSW,253,5.0,13.0,67,0.00,,,0.00,725.000000,,2013-09-04 16:53:00,
2013-09-04 13:23:00,73.0,58.0,-100.00,West,268,5.0,12.0,60,0.00,,,-99.99,779.000000,,2013-09-04 17:23:00,
2013-09-04 13:34:00,73.0,58.0,-100.00,West,268,5.0,12.0,60,0.00,,,-99.99,779.000000,,2013-09-04 17:34:00,
2013-09-04 13:42:00,73.0,58.0,-100.00,West,268,5.0,12.0,60,0.00,,,-99.99,779.000000,,2013-09-04 17:42:00,
2013-09-04 13:52:00,73.0,58.0,-100.00,West,268,5.0,12.0,60,0.00,,,-99.99,779.000000,,2013-09-04 17:52:00,
2013-09-04 14:22:00,75.0,58.0,-100.00,SW,236,7.0,15.0,55,0.00,,,0.00,830.000000,,2013-09-04 18:22:00,
2013-09-04 14:32:00,75.0,58.0,-100.00,SW,236,7.0,15.0,55,0.00,,,0.00,830.000000,,2013-09-04 18:32:00,
2013-09-04 14:42:00,75.0,58.0,-100.00,SW,236,7.0,15.0,55,0.00,,,0.00,830.000000,,2013-09-04 18:42:00,
2013-09-04 14:52:00,75.0,58.0,-100.00,SW,236,7.0,15.0,55,0.00,,,0.00,830.000000,,2013-09-04 18:52:00,
2013-09-04 15:22:00,77.0,59.0,-100.00,West,261,4.0,15.0,53,0.00,,,0.00,784.000000,,2013-09-04 19:22:00,
2013-09-04 15:32:00,77.0,59.0,-100.00,West,261,4.0,15.0,53,0.00,,,0.00,784.000000,,2013-09-04 19:32:00,
2013-09-04 15:42:00,77.0,59.0,-100.00,West,261,4.0,15.0,53,0.00,,,0.00,784.000000,,2013-09-04 19:42:00,
2013-09-04 15:52:00,77.0,59.0,-100.00,West,261,4.0,15.0,53,0.00,,,0.00,784.000000,,2013-09-04 19:52:00,
2013-09-04 16:22:00,78.0,57.0,-100.00,WSW,245,4.0,13.0,49,0.00,,,0.00,682.000000,,2013-09-04 20:22:00,
2013-09-04 16:32:00,78.0,57.0,-100.00,WSW,245,4.0,13.0,49,0.00,,,0.00,682.000000,,2013-09-04 20:32:00,
2013-09-04 16:43:00,78.0,57.0,-100.00,WSW,245,4.0,13.0,49,0.00,,,0.00,682.000000,,2013-09-04 20:43:00,
2013-09-04 16:53:00,78.0,57.0,-100.00,WSW,245,4.0,13.0,49,0.00,,,0.00,682.000000,,2013-09-04 20:53:00,
2013-09-04 17:22:00,77.0,58.0,-100.00,WSW,240,5.0,13.0,52,0.00,,,0.00,540.000000,,2013-09-04 21:22:00,
2013-09-04 17:34:00,77.0,58.0,-100.00,WSW,240,5.0,13.0,52,0.00,,,0.00,540.000000,,2013-09-04 21:34:00,
2013-09-04 17:44:00,77.0,58.0,-100.00,WSW,240,5.0,13.0,52,0.00,,,0.00,540.000000,,2013-09-04 21:44:00,
2013-09-04 17:54:00,77.0,58.0,-100.00,WSW,240,5.0,13.0,52,0.00,,,0.00,540.000000,,2013-09-04 21:54:00,
2013-09-04 18:23:00,76.0,60.0,-100.00,SW,236,3.0,10.0,57,0.00,,,0.00,368.000000,,2013-09-04 22:23:00,
2013-09-04 18:33:00,76.0,60.0,-100.00,SW,236,3.0,10.0,57,0.00,,,0.00,368.000000,,2013-09-04 22:33:00,
2013-09-04 18:43:00,76.0,60.0,-100.00,SW,236,3.0,10.0,57,0.00,,,0.00,368.000000,,2013-09-04 22:43:00,
2013-09-04 18:54:00,76.0,60.0,-100.00,SW,236,3.0,10.0,57,0.00,,,0.00,368.000000,,2013-09-04 22:54:00,
2013-09-04 19:52:00,70.0,62.0,-100.00,SW,236,2.0,8.0,75,0.00,,,0.00,158.000000,,2013-09-04 23:52:00,
2013-09-04 20:52:00,65.0,62.0,-100.00,West,259,1.0,2.0,89,0.00,,,0.00,9.000000,,2013-09-05 00:52:00,
2013-09-04 21:42:00,62.0,61.0,-100.00,WSW,251,0.0,2.0,98,0.00,,,0.00,1.000000,,2013-09-05 01:42:00,
2013-09-04 21:52:00,62.0,61.0,-100.00,WSW,251,0.0,2.0,98,0.00,,,0.00,1.000000,,2013-09-05 01:52:00,
2013-09-04 22:22:00,60.0,60.0,-100.00,West,269,0.0,0.0,100,0.00,,,0.00,1.000000,,2013-09-05 02:22:00,
2013-09-04 22:32:00,60.0,60.0,-100.00,West,269,0.0,0.0,100,0.00,,,0.00,1.000000,,2013-09-05 02:32:00,
2013-09-04 22:42:00,60.0,60.0,-100.00,West,269,0.0,0.0,100,0.00,,,0.00,1.000000,,2013-09-05 02:42:00,
2013-09-04 22:52:00,60.0,60.0,-100.00,West,269,0.0,0.0,100,0.00,,,0.00,1.000000,,2013-09-05 02:52:00,
2013-09-04 23:22:00,59.0,59.0,-100.00,WNW,284,0.0,2.0,100,0.00,,,0.00,1.000000,,2013-09-05 03:22:00,
2013-09-04 23:34:00,59.0,59.0,-100.00,WNW,284,0.0,2.0,100,0.00,,,0.00,1.000000,,2013-09-05 03:34:00,
2013-09-04 23:45:00,59.0,59.0,-100.00,WNW,284,0.0,2.0,100,0.00,,,0.00,1.000000,,2013-09-05 03:45:00,
2013-09-04 23:54:00,59.0,59.0,-100.00,WNW,284,0.0,2.0,100,0.00,,,0.00,1.000000,,2013-09-05 03:54:00,